Weather History for Klawock, AK

Change the Weather History Date:

Wednesday, November 21, 2012

  Actual Average Record
Temperature  
Mean Temperature 35 °F -  
Max Temperature 39 °F 41 °F 51 °F (2000)
Min Temperature 33 °F 33 °F 19 °F (2003)
Degree Days  
Heating Degree Days 30    
Moisture  
Dew Point 33 °F    
Average Humidity 88    
Maximum Humidity 93    
Minimum Humidity 79    
Precipitation  
Precipitation 0.03 in - - ()
Sea Level Pressure  
Sea Level Pressure 29.66 in    
Wind  
Wind Speed 7 mph (NNE)    
Max Wind Speed 12 mph    
Max Gust Speed 18 mph    
Visibility 9 miles    
Events Snow    
Averages and records for this station are not official NWS values.
T = Trace of Precipitation, MM = Missing Value Source: NWS Daily Summary

Daily Weather History Graph

Daily Weather History Graph

Search for Another Location

Airport:

Trip Planner

Search our weather history database for the weather conditions in past years. The results will help you decide how hot, cold, wet, or windy it might be!

Date:

Astronomy

Nov. 21, 2012 Rise Set
Actual Time 7:40 AM AKST 3:36 PM AKST
Civil Twilight 6:57 AM AKST 4:19 PM AKST
Nautical Twilight 6:10 AM AKST 5:05 PM AKST
Astronomical Twilight 5:27 AM AKST 5:48 PM AKST
Moon 12:54 PM AKST (11/21) 12:02 AM AKST (11/21)
Length of Visible Light 9h 21m
Length of Day
7h 56m
Waxing Gibbous, 63% of the Moon is Illuminated
Nov 21
Waxing Gibbous
Nov 28
Full
Dec 6
Last Quarter
Dec 12
New
Dec 19
First Quarter

Hourly Weather History & Observations

Time (AKST) Temp. Windchill Dew Point Humidity Pressure Visibility Wind Dir Wind Speed Gust Speed Precip Events Conditions
12:53 AM 35.1 °F 27.9 °F 30.9 °F 85% 29.40 in 9.0 mi NNE 9.2 mph - 0.00 in Snow Light Snow
1:53 AM 35.1 °F 30.1 °F 30.9 °F 85% 29.42 in 10.0 mi NE 5.8 mph - 0.00 in   Overcast
3:53 AM 35.1 °F 29.3 °F 32.0 °F 89% 29.45 in 10.0 mi NE 6.9 mph - N/A   Overcast
4:53 AM 35.1 °F 27.9 °F 30.9 °F 85% 29.48 in 10.0 mi NNE 9.2 mph - N/A   Overcast
5:53 AM 35.1 °F 29.3 °F 30.9 °F 85% 29.50 in 10.0 mi NE 6.9 mph - N/A   Overcast
6:34 AM 33.8 °F 27.0 °F 32.0 °F 93% 29.51 in 6.0 mi NNE 8.1 mph - 0.00 in Snow Light Snow
6:43 AM 33.8 °F 28.6 °F 32.0 °F 93% 29.52 in 5.0 mi NNE 5.8 mph - 0.00 in Snow Light Snow
6:53 AM 34.0 °F 28.0 °F 32.0 °F 92% 29.52 in 7.0 mi NNE 6.9 mph - 0.00 in Snow Light Snow
7:53 AM 34.0 °F 28.0 °F 32.0 °F 92% 29.55 in 5.0 mi NNE 6.9 mph - 0.01 in Snow Light Snow
8:11 AM 33.8 °F 27.7 °F 32.0 °F 93% 29.55 in 5.0 mi NE 6.9 mph - 0.01 in Snow Light Snow
8:53 AM 34.0 °F 27.2 °F 32.0 °F 92% 29.58 in 10.0 mi NNE 8.1 mph - 0.01 in   Overcast
9:53 AM 36.0 °F 30.3 °F 33.1 °F 89% 29.61 in 10.0 mi NNE 6.9 mph - N/A   Overcast
10:02 AM 35.6 °F 28.0 °F 33.8 °F 93% 29.61 in 10.0 mi NNE 10.4 mph - N/A   Overcast
10:53 AM 36.0 °F 29.6 °F 33.1 °F 89% 29.63 in 10.0 mi NNE 8.1 mph - N/A   Overcast
11:53 AM 37.0 °F 30.4 °F 33.1 °F 86% 29.66 in 10.0 mi NNE 9.2 mph - 0.01 in   Overcast
12:53 PM 37.0 °F 33.3 °F 33.1 °F 86% 29.68 in 10.0 mi Variable 4.6 mph - N/A   Overcast
1:13 PM 37.4 °F 30.8 °F 33.8 °F 87% 29.69 in 10.0 mi NNE 9.2 mph - N/A   Overcast
1:53 PM 37.0 °F 31.0 °F 33.1 °F 86% 29.71 in 10.0 mi NE 8.1 mph - N/A   Mostly Cloudy
2:53 PM 36.0 °F 31.1 °F 33.1 °F 89% 29.73 in 10.0 mi NE 5.8 mph - N/A   Clear
3:53 PM 35.1 °F 32.2 °F 32.0 °F 89% 29.76 in 10.0 mi ENE 3.5 mph - N/A   Scattered Clouds
4:00 PM 35.6 °F 31.7 °F 32.0 °F 87% 29.76 in 10.0 mi NE 4.6 mph - N/A   Mostly Cloudy
4:08 PM 35.6 °F 30.7 °F 32.0 °F 87% 29.76 in 10.0 mi NE 5.8 mph - N/A   Scattered Clouds
4:53 PM 35.1 °F 31.0 °F 33.1 °F 92% 29.78 in 10.0 mi ENE 4.6 mph - N/A   Mostly Cloudy
5:53 PM 36.0 °F 31.1 °F 33.1 °F 89% 29.80 in 10.0 mi NNE 5.8 mph - N/A   Mostly Cloudy
6:53 PM 36.0 °F - 33.1 °F 89% 29.82 in 10.0 mi Calm Calm - N/A   Mostly Cloudy
7:53 PM 36.0 °F 31.1 °F 33.1 °F 89% 29.83 in 10.0 mi NE 5.8 mph - N/A   Partly Cloudy
8:53 PM 36.0 °F - 33.1 °F 89% 29.85 in 10.0 mi Calm Calm - N/A   Partly Cloudy
9:53 PM 37.0 °F 32.4 °F 33.1 °F 86% 29.85 in 10.0 mi NNE 5.8 mph - N/A   Clear
10:53 PM 37.0 °F 29.3 °F 34.0 °F 89% 29.86 in 10.0 mi NNE 11.5 mph 18.4 mph N/A   Partly Cloudy
11:53 PM 39.0 °F 35.7 °F 33.1 °F 79% 29.83 in 10.0 mi NNW 4.6 mph - N/A   Mostly Cloudy